Location: Colorado National Monument
(39.1030°N, 108.7297°W)
Time: 12:39:09
(UTC-06:00)

Envisat - Visible Passes

Search period start: 22 April 2019 00:00
Search period end: 02 May 2019 00:00
Orbit: 764 x 766 km, 98.2° (Epoch: 22 April)

Date Brightness Start Highest point End Pass type
(mag) Time Alt. Az. Time Alt. Az. Time Alt. Az.
23 Apr 5.9 21:13:29 10° WSW 21:16:01 14° W 21:18:34 10° WNW visible
24 Apr 4.9 20:34:28 10° SSW 20:38:57 32° W 20:43:28 10° NNW visible
26 Apr 5.7 21:01:18 10° SW 21:04:41 18° W 21:08:05 10° NW visible
29 Apr 5.5 20:49:25 10° SW 20:53:22 23° W 20:57:20 10° NW visible
01 May 5.9 21:17:04 10° WSW 21:19:09 12° W 21:21:14 10° WNW visible
